TimeCDT,TemperatureF,Dew PointF,Humidity,Sea Level PressureIn,VisibilityMPH,Wind Direction,Wind SpeedMPH,Gust SpeedMPH,PrecipitationIn,Events,Conditions,WindDirDegrees,DateUTC
12:54 AM,63.0,53.1,70,29.99,10.0,SE,5.8,-,N/A,,Clear,140,2012-10-25 05:54:00
1:54 AM,64.0,53.1,67,29.98,10.0,SSE,5.8,-,N/A,,Clear,160,2012-10-25 06:54:00
2:54 AM,63.0,53.1,70,29.98,10.0,Calm,Calm,-,N/A,,Clear,0,2012-10-25 07:54:00
3:54 AM,63.0,54.0,72,29.97,10.0,South,4.6,-,N/A,,Clear,190,2012-10-25 08:54:00
4:54 AM,62.1,53.1,72,29.96,10.0,South,6.9,-,N/A,,Clear,190,2012-10-25 09:54:00
5:54 AM,62.1,53.1,72,29.97,10.0,SSE,5.8,-,N/A,,Clear,160,2012-10-25 10:54:00
6:54 AM,60.1,53.1,78,29.99,10.0,Calm,Calm,-,N/A,,Clear,0,2012-10-25 11:54:00
8:54 AM,64.9,55.0,70,30.01,10.0,South,6.9,-,N/A,,Clear,190,2012-10-25 13:54:00
9:54 AM,69.1,57.0,65,30.01,10.0,South,8.1,-,N/A,,Clear,190,2012-10-25 14:54:00
10:54 AM,73.9,57.9,57,29.99,10.0,SSW,9.2,16.1,N/A,,Clear,200,2012-10-25 15:54:00
11:54 AM,77.0,59.0,54,29.98,10.0,SSW,17.3,24.2,N/A,,Clear,210,2012-10-25 16:54:00
12:54 PM,78.1,59.0,52,29.95,10.0,SW,16.1,24.2,N/A,,Clear,220,2012-10-25 17:54:00
1:54 PM,78.1,59.0,52,29.93,10.0,South,17.3,21.9,N/A,,Scattered Clouds,170,2012-10-25 18:54:00
2:54 PM,78.8,59.0,51,29.92,10.0,South,12.7,23.0,N/A,,Partly Cloudy,190,2012-10-25 19:54:00
3:54 PM,78.1,59.0,52,29.91,10.0,SSW,11.5,-,N/A,,Scattered Clouds,200,2012-10-25 20:54:00
4:54 PM,77.0,57.9,52,29.90,10.0,South,9.2,19.6,N/A,,Clear,180,2012-10-25 21:54:00
5:54 PM,75.0,57.9,55,29.91,10.0,South,9.2,-,N/A,,Clear,180,2012-10-25 22:54:00
6:54 PM,73.0,57.0,57,29.92,10.0,South,6.9,-,N/A,,Clear,180,2012-10-25 23:54:00
7:54 PM,72.0,57.0,59,29.92,10.0,South,4.6,-,N/A,,Clear,180,2012-10-26 00:54:00
8:54 PM,71.1,55.9,59,29.93,10.0,South,6.9,-,N/A,,Partly Cloudy,180,2012-10-26 01:54:00
9:54 PM,69.1,55.0,61,29.94,10.0,SSW,8.1,-,N/A,,Clear,210,2012-10-26 02:54:00
10:54 PM,70.0,55.9,61,29.97,10.0,West,16.1,-,N/A,,Overcast,270,2012-10-26 03:54:00
11:13 PM,57.2,48.2,72,30.00,10.0,NW,18.4,28.8,N/A,,Overcast,310,2012-10-26 04:13:00
11:54 PM,55.0,48.0,77,30.04,10.0,NW,12.7,21.9,N/A,,Overcast,310,2012-10-26 04:54:00